Regional Weather Roundup
Issued by NWS Charleston, SC

Current Version | Previous Version | Graphics & Text | Print | Product List | Glossary On
Versions: 1 2 3 4 5 6 7 8 9 10 11 12 13 14 15 16 17 18 19 20 21 22 23 24 25 26 27 28 29 30 31 32 33 34 35 36 37 38 39 40 41 42 43 44 45 46 47 48 49 50
000
ASUS42 KCHS 271927
RWRCHS

REGIONAL WEATHER ROUNDUP
NATIONAL WEATHER SERVICE CHARLESTON SC
300 PM EDT MON APR 27 2015

NOTE: "FAIR" INDICATES FEW OR NO CLOUDS BELOW 12,000 FEET WITH NO
SIGNIFICANT WEATHER AND/OR OBSTRUCTIONS TO VISIBILITY.

NOT ALL STATIONS ARE QUALITY CONTROLLED BY THE NATIONAL
WEATHER SERVICE. USE DATA WITH CAUTION...ESPECIALLY
DEWPOINT OBSERVATIONS.

SCZ027-030-031-034>040-042>050-272000-
...SOUTHEAST SOUTH CAROLINA...

CITY           SKY/WX    TMP DP  RH WIND       PRES   REMARKS
N CHARLESTON   MOSUNNY   72  47  40 N9        29.82R
WATERFRONT PRK   N/A     70 N/A N/A N12         N/A
MOUNT PLEASANT FAIR      72  46  40 MISG      29.82R
PINOPOLIS      NOT AVBL
MONCKS CORNER  FAIR      72  46  40 N5        29.82F
SUMMERVILLE    FAIR      72  50  46 N6        29.83S
BEAUFORT MCAS  PTSUNNY   72  49  44 NW5       29.83R
BEAUFORT ARPT  FAIR      72  52  49 W8        29.81F
HILTON HEAD IS MOSUNNY   70  50  49 N10       29.84R
WALTERBORO     PTCLDY    70  46  43 NW8       29.83R
ALLENDALE      FAIR      72  46  40 N6G12     29.83R

...SOUTHERN MIDLANDS AND PEE DEE...

CITY           SKY/WX    TMP DP  RH WIND       PRES   REMARKS
GEORGETOWN     NOT AVBL
KINGSTREE      NOT AVBL
ORANGEBURG     MOSUNNY   72  42  34 NW8       29.82R
BARNWELL       FAIR      73  46  38 N7        29.84R
AIKEN          FAIR      70  41  35 W9        29.87S
MANNING        FAIR      68  32  26 N9        29.82F
COLUMBIA       MOSUNNY   72  44  36 NW9G21    29.83R
SUMTER         MOSUNNY   68  42  39 NW8       29.80F
FLORENCE       PTSUNNY   71  42  35 N12       29.81R
MYRTLE BEACH   MOSUNNY   70  43  37 N8        29.81F
N MYRTLE BEACH SUNNY     70  41  34 N7        29.79F

$$

GAZ063-065-086>088-099>101-113>116-118-119-134>141-150-272000-
...SOUTHEAST GEORGIA...

CITY           SKY/WX    TMP DP  RH WIND       PRES   REMARKS
SAVANNAH ARPT  CLOUDY    75  51  43 N7        29.83R
HUNTER AAF     MOSUNNY   75  54  48 NW6       29.81R
FORT STEWART   PTSUNNY   74  55  50 VRB3      29.81S
STATESBORO       N/A     73  53  49 N6        29.84S
SYLVANIA       PTCLDY    71  52  50 CALM      29.85S
CLAXTON        FAIR      73  55  53 CALM      29.84S

...CSRA...CENTRAL AND FAR SOUTHEAST GEORGIA...

CITY           SKY/WX    TMP DP  RH WIND       PRES   REMARKS
THOMSON        MOSUNNY   73  52  46 W5        29.88F
AUGUSTA-BUSH   SUNNY     73  46  38 MISG      29.84R
AUGUSTA-DANIEL MOSUNNY   74  46  36 VRB7      29.85S
SWAINSBORO     NOT AVBL
VIDALIA        MOSUNNY   73  54  49 N3        29.85R
EASTMAN        FAIR      74  56  52 NW3       29.88S
HAZLEHURST     FAIR      74  57  55 CALM      29.84R
ALMA           CLOUDY    68  58  70 VRB3      29.85S
WAYCROSS       CLOUDY    73  64  73 N6        29.85R
JESUP          FAIR      72  63  73 CALM      29.85S
BAXLEY         FAIR      72  57  60 CALM      29.84S
BRUNSWICK      CLOUDY    64  61  88 N3        29.85S
SAINT SIMONS   CLOUDY    66  61  84 N10       29.84R

$$

SCZ027-028-034-036>038-045-046-048>050-GAZ119-141-272000-
...LAKE AND SUPPLEMENTAL COASTAL OBSERVATIONS...

STATION/POSITION TIME  TEMP    WIND        PRES    WAVE   SWELL
                       AIR SEA DIR/SP/G            HT/PER HT/PER/DIR
                 (UTC) (F)     (DEG/KT/KT) (MB)    (FT/S) (FT/S/D)
UPR LAKE MARION  NOT AVBL
WINYAH BAY       1800   64     110/  7     1008.0
LAKE MURRAY      1800   65     190/  7/  8 1009.8F
ACE BASIN NERRS  1830   74                 1010.0
FORT PULASKI     1900   68 70   70/  7/  8 1010.4R
SAPELO ISLAND    1800   64     360/  5     1010.0S

$$

ANZ835-935-AMZ111-154-330-350-352-354-370-450-454-472-272000-
...C-MAN AND BUOY OBSERVATIONS...

STATION/POSITION TIME  TEMP    WIND        PRES    WAVE   SWELL
                       AIR SEA DIR/SP/G            HT/PER HT/PER/DIR
                 (UTC) (F)     (DEG/KT/KT) (MB)    (FT/S) (FT/S/D)
BUOY 41004       1850   62 71   20/ 12/ 14 1009.3R   3/ 6   2/ 6
BUOY 41008       1850   63 69   30/ 10/ 12 1010.5R   3/ 6   2/ 60/ 6
FOLLY BEACH CMAN 1900   69     360/  7/ 10 1009.7R
CAPERS NEARSHORE 1808   64     100/  6/ 10 1009.4F
FRIPP NEARSHORE  1800   67      40/ 10/ 10 1009.4F


STATION/POSITION TIME  TEMP    WIND        PRES    WAVE   SWELL
                       AIR SEA DIR/SP/G            HT/PER HT/PER/DIR
                 (UTC) (F)     (DEG/KT/KT) (MB)    (FT/S) (FT/S/D)
5E ST. MARYS GA  1821      71                N/A     3/ 6
FRYING PAN BUOY  1850   62 71   10/  8/ 10 1009.3F   3/ 6   3/ 90/ 6
BUOY 41025       1850   62 75  320/ 10/ 12 1007.4F   4/10   5/ 80/10
CAPE LOOKOUT NC  1900   62     160/  7/  8 1006.9F
BUOY 41002       1850   68 71  290/ 10/ 12 1006.4F   5/ 7   5/300/ 7
BUOY 41010       1820   79 79  300/ 16/ 17 1007.9R
ST AUGUSTINE FL  1900   69 69   10/ 11/ 12 1010.2R


$$


USA.gov is the U.S. government's official web portal to all federal, state and local government web resources and services.